Terminal Aerodrome Forecast
Issued by NWS

Home | Current Version | Previous Version | Text Only | Print | Product List | Glossary On
Versions: 1 2 3 4 5 6 7 8 9 10 11 12 13 14 15 16 17 18 19 20 21 22 23 24 25 26 27 28 29 30 31
757
FTUS44 KFWD 241728
TAFGKY
TAF
KGKY 241728Z 2418/2518 18013KT P6SM SCT050
     FM250200 16009KT P6SM FEW250
     FM251700 17006KT P6SM SCT050=

USA.gov is the U.S. government's official web portal to all federal, state and local government web resources and services.